"2009-11-19 00:00:00",1428766,1.723,278.3,11.23,1.297,12.39,103.9237,9.32,10.5,18.03,0,110.3,13.29,10.10,240.3
"2009-11-19 00:00:30",1428767,1.804,294.7,7.897,1.353,11.98,103.9031,9.27,10.43,17.83,0,110.3,13.29,10.05,256.7
"2009-11-19 00:01:00",1428768,0.69,293.8,3.412,0.065,9.89,103.8904,9.23,10.37,17.61,0,110.3,13.32,10.02,255.8
"2009-11-19 00:01:30",1428769,0.671,305.5,5.857,0.062,9.41,103.8893,9.23,10.3,17.41,0,110.3,13.32,10.02,267.5
"2009-11-19 00:02:00",1428770,0.538,323.2,4.21,0.032,9.14,103.8661,9.17,10.27,17.21,0,110.3,13.33,9.96,285.2
"2009-11-19 00:02:30",1428771,1.09,340.3,5.99,0.947,10.2,103.8566,9.15,10.4,17.14,0,110.3,13.29,9.93,302.3
"2009-11-19 00:03:00",1428772,2.726,346.3,9.1,1.352,11.77,103.8552,9.14,10.37,16.49,0,110.3,13.29,9.93,308.3
"2009-11-19 00:03:30",1428773,1.918,349,6.568,1.243,12,103.837,9.1,10.38,16,0,110.3,13.29,9.88,311.0
"2009-11-19 00:04:00",1428774,0.72,337,6.152,0.576,9.48,103.8356,9.09,10.17,15.61,0,110.2,13.29,9.88,299.0
"2009-11-19 00:04:30",1428775,0.499,320.9,7.192,0.075,9.18,103.8322,9.08,10.16,15.65,0,110.3,13.33,9.87,282.9
"2009-11-19 00:05:00",1428776,0.738,302.8,4.593,0.057,9.33,103.8186,9.05,10.13,16.01,0,110.2,13.34,9.83,264.8
"2009-11-19 00:05:30",1428777,1.452,292.4,4.432,1.175,11.02,103.8158,9.04,10.27,16.69,0,110.2,13.31,9.83,254.4
"2009-11-19 00:06:00",1428778,1.345,286.6,4.736,0.904,10.84,103.8214,9.06,10.19,17.03,0,110.2,13.31,9.84,248.6
"2009-11-19 00:06:30",1428779,2.282,302.2,8.31,1.328,12.17,103.8082,9.02,10.12,17.16,0,110.2,13.31,9.81,264.2
"2009-11-19 00:07:00",1428780,0.866,306.7,5.63,0.058,10.11,103.7944,8.99,10.18,17.33,0,110.2,13.35,9.77,268.7
"2009-11-19 00:07:30",1428781,1.706,335.1,4.079,1.339,11.16,103.7899,8.98,10.07,17.17,0,110.2,13.31,9.76,297.1
"2009-11-19 00:08:00",1428782,0.722,345,3.037,0.053,9.3,103.78,8.95,10,17.06,0,110.2,13.35,9.73,307.0
"2009-11-19 00:08:30",1428783,1.346,336.4,4.56,1.135,10.42,103.7586,8.9,9.99,16.82,0,110.2,13.31,9.68,298.4
"2009-11-19 00:09:00",1428784,1.116,316.7,7.719,0.845,10.73,103.7563,8.89,10.1,16.92,0,110.2,13.31,9.67,278.7
"2009-11-19 00:09:30",1428785,2.349,302.4,11.72,1.274,12.25,103.7482,8.87,10.02,17.11,0,110.2,13.31,9.65,264.4
"2009-11-19 00:10:00",1428786,1.782,280.4,7.141,1.035,11.33,103.7335,8.83,10.07,17.63,0,110.2,13.31,9.62,242.4
"2009-11-19 00:10:30",1428787,1.348,262.3,7.275,0.038,9.97,103.7225,8.8,9.91,17.91,0,110.2,13.35,9.59,224.3
"2009-11-19 00:11:00",1428788,1.284,250.6,1.217,0.033,9.94,103.7243,8.81,9.91,18.58,0,110.2,13.35,9.59,212.6
"2009-11-19 00:11:30",1428789,1.874,250.4,5.328,1.142,11.33,103.7281,8.82,9.92,19.39,0,110.2,13.32,9.60,212.4
"2009-11-19 00:12:00",1428790,2.188,251.2,6.674,1.301,12.7,103.7193,8.8,9.95,19.83,0,110.2,13.32,9.58,213.2
"2009-11-19 00:12:30",1428791,1.278,247.5,2.889,0.678,10.63,103.7085,8.77,9.86,19.92,0,110.2,13.32,9.55,209.5
"2009-11-19 00:13:00",1428792,2.219,251.5,6.499,1.255,12.91,103.7182,8.79,10.02,20.15,0,110.2,13.33,9.58,213.5
"2009-11-19 00:13:30",1428793,0.948,243.8,1.512,0.033,10.45,103.7226,8.8,9.82,20.03,0,110.2,13.34,9.59,205.8
"2009-11-19 00:14:00",1428794,0.977,245.4,1.176,0.015,10.34,103.7232,8.81,9.81,20.13,0,110.2,13.36,9.59,207.4
"2009-11-19 00:14:30",1428795,0.979,247.6,0.731,0.033,10.32,103.713,8.78,9.79,20.28,0,110.2,13.36,9.56,209.6
"2009-11-19 00:15:00",1428796,0.874,257.7,6.267,0.044,10.58,103.6916,8.73,9.82,20.37,0,110.2,13.36,9.51,219.7
"2009-11-19 00:15:30",1428797,2.561,288.8,8.9,1.351,13.88,103.6899,8.72,10.05,20.41,0,110.2,13.32,9.50,250.8
"2009-11-19 00:16:00",1428798,1.53,291.1,5.245,0.952,11.76,103.6899,8.72,9.92,19.86,0,110.2,13.33,9.50,253.1
"2009-11-19 00:16:30",1428799,1.071,291.1,1.21,0.056,9.94,103.6899,8.72,9.73,19.18,0,110.2,13.36,9.50,253.1
"2009-11-19 00:17:00",1428800,0.964,301.8,5.598,0.037,9.56,103.6877,8.72,9.73,18.86,0,110.2,13.36,9.50,263.8
"2009-11-19 00:17:30",1428801,1.904,322.6,10.01,1.247,11.33,103.6713,8.67,9.86,18.77,0,110.2,13.33,9.46,284.6
"2009-11-19 00:18:00",1428802,0.839,327,2.9,0.04,9.45,103.6566,8.64,9.79,18.56,0,110.2,13.36,9.42,289.0
"2009-11-19 00:18:30",1428803,0.843,338.4,4.785,0.042,9.49,103.6561,8.63,9.71,18.39,0,110.2,13.36,9.42,300.4
"2009-11-19 00:19:00",1428804,1.683,350.9,6.98,1.316,10.9,103.6561,8.63,9.69,18,0,110.2,13.33,9.42,312.9
"2009-11-19 00:19:30",1428805,1.669,354.9,10.06,1.197,11.72,103.6563,8.64,9.85,17.48,0,110.2,13.33,9.42,316.9
"2009-11-19 00:20:00",1428806,0.878,348.6,5.065,0.458,9.72,103.6566,8.64,9.66,16.73,0,110.2,13.33,9.42,310.6
"2009-11-19 00:20:30",1428807,0.728,346.6,2.623,0.056,9.4,103.648,8.61,9.65,16.35,0,110.2,13.37,9.40,308.6
"2009-11-19 00:21:00",1428808,1.758,349.3,6.708,1.313,11.47,103.6343,8.58,9.73,16.31,0,110.2,13.34,9.36,311.3
"2009-11-19 00:21:30",1428809,2.512,348.9,6.722,1.239,13.34,103.6336,8.58,9.83,16.37,0,110.2,13.34,9.36,310.9
"2009-11-19 00:22:00",1428810,1.046,342.7,4.213,0.937,10.42,103.6418,8.6,9.63,16.27,0,110.2,13.34,9.38,304.7
"2009-11-19 00:22:30",1428811,0.53,348.2,3.654,0.086,9.97,103.6456,8.61,9.63,16.32,0,110.2,13.38,9.39,310.2
"2009-11-19 00:23:00",1428812,0.485,344.9,2.442,0.044,9.42,103.6555,8.63,9.64,16.33,0,110.1,13.38,9.42,306.9
"2009-11-19 00:23:30",1428813,1.463,339.8,11.98,1.321,11.23,103.6573,8.64,9.69,16.38,0,110.1,13.34,9.42,301.8
"2009-11-19 00:24:00",1428814,0.441,317.8,5.813,0.471,9.51,103.6466,8.61,9.7,16.62,0,110.1,13.38,9.39,279.8
"2009-11-19 00:24:30",1428815,0.45,308,1.986,0.051,9.01,103.6288,8.56,9.59,17.01,0,110.1,13.38,9.35,270.0
"2009-11-19 00:25:00",1428816,0.46,303.7,3.134,0.041,9.11,103.6234,8.55,9.58,17.43,0,110.1,13.38,9.33,265.7
"2009-11-19 00:25:30",1428817,0.446,308.5,2.839,0.044,9.44,103.6234,8.55,9.57,17.57,0,110.1,13.38,9.33,270.5
"2009-11-19 00:26:00",1428818,1.181,320.4,9.26,1.205,10.79,103.6234,8.55,9.58,17.61,0,110.1,13.35,9.33,282.4
"2009-11-19 00:26:30",1428819,0.788,338,9.56,1.015,11.02,103.6234,8.55,9.73,17.84,0,110.1,13.35,9.33,300.0
"2009-11-19 00:27:00",1428820,0.907,5.907,17.53,1.218,10.74,103.6172,8.54,9.53,17.62,0,110.1,13.35,9.32,327.9
"2009-11-19 00:27:30",1428821,0.334,356.2,11.17,0.196,9.67,103.6054,8.5,9.52,17.29,0,110.1,13.39,9.29,318.2
"2009-11-19 00:28:00",1428822,0.253,357.2,9.45,0.174,9.88,103.5904,8.47,9.59,17.07,0,110.1,13.39,9.25,319.2
"2009-11-19 00:28:30",1428823,1.088,16.99,22.91,1.224,11.93,103.5896,8.46,9.59,16.93,0,110.1,13.35,9.25,339.0
"2009-11-19 00:29:00",1428824,1.238,16.33,15.32,1.322,11.84,103.5896,8.46,9.65,16.89,0,110.1,13.35,9.25,338.3
"2009-11-19 00:29:30",1428825,0.374,10.88,7.093,0.174,9.93,103.5819,8.45,9.6,16.64,0,110.1,13.39,9.23,332.9
"2009-11-19 00:30:00",1428826,0.602,12,2.975,0.108,9.36,103.5619,8.39,9.46,16.33,0,110.1,13.39,9.18,334.0
"2009-11-19 00:30:30",1428827,1.42,16.59,5.427,1.305,10.94,103.5557,8.38,9.51,16.32,0,110.1,13.35,9.16,338.6
"2009-11-19 00:31:00",1428828,1.228,8.63,12.71,1.239,11.19,103.5566,8.38,9.58,16.51,0,110.1,13.36,9.16,330.6
"2009-11-19 00:31:30",1428829,0.118,340.6,10.4,0.028,9.07,103.5587,8.39,9.42,16.58,0,110.1,13.39,9.17,302.6
"2009-11-19 00:32:00",1428830,0.085,358.8,12.29,0.045,9.02,103.5501,8.36,9.41,16.85,0,110.1,13.39,9.14,320.8
"2009-11-19 00:32:30",1428831,0.182,24.47,3.116,0.091,8.7,103.535,8.32,9.39,17.01,0,110.1,13.39,9.11,346.5
"2009-11-19 00:33:00",1428832,0.423,26.91,4.015,0.07,9,103.5394,8.34,9.38,17.02,0,110.1,13.39,9.12,348.9
"2009-11-19 00:33:30",1428833,0.588,31.78,3.925,0.071,9.38,103.5381,8.33,9.35,16.94,0,110.1,13.39,9.11,353.8
"2009-11-19 00:34:00",1428834,0.646,33.96,3.611,0.093,9.92,103.5225,8.29,9.35,16.85,0,110.1,13.39,9.07,356.0
"2009-11-19 00:34:30",1428835,1.795,33.37,8.67,1.353,11.82,103.5192,8.28,9.35,16.85,0,110.1,13.36,9.07,355.4
"2009-11-19 00:35:00",1428836,1.688,26.17,7.478,1.335,12.29,103.5207,8.29,9.49,17.09,0,110.1,13.36,9.07,348.2
"2009-11-19 00:35:30",1428837,1.572,16.89,12.32,1.25,12.33,103.5072,8.25,9.44,17.1,0,110.1,13.36,9.03,338.9
"2009-11-19 00:36:00",1428838,0.884,349.1,3.744,0.179,10.03,103.4892,8.21,9.27,17.13,0,110.1,13.39,8.99,311.1
"2009-11-19 00:36:30",1428839,2.249,350.5,6.344,1.313,12.31,103.4892,8.21,9.37,17.32,0,110.1,13.36,8.99,312.5
"2009-11-19 00:37:00",1428840,1.507,341.6,4.22,1.012,11,103.4844,8.2,9.35,17.4,0,110.1,13.37,8.98,303.6
"2009-11-19 00:37:30",1428841,1.712,328.3,12.38,1.139,10.33,103.4601,8.13,9.28,17.54,0,110.1,13.37,8.91,290.3
"2009-11-19 00:38:00",1428842,0.929,316.8,2.396,0.057,9.13,103.4553,8.12,9.18,17.73,0,110.1,13.41,8.90,278.8
"2009-11-19 00:38:30",1428843,0.97,318,2.159,0.079,8.97,103.455,8.12,9.16,17.93,0,110.1,13.41,8.90,280.0
"2009-11-19 00:39:00",1428844,0.979,326.8,5.002,0.081,9.26,103.4488,8.1,9.14,18.04,0,110.1,13.41,8.89,288.8
"2009-11-19 00:39:30",1428845,1.102,341.7,5.619,0.137,9.37,103.4251,8.04,9.12,18.07,0,110.1,13.41,8.82,303.7
"2009-11-19 00:40:00",1428846,1.542,343,3.045,0.105,9.4,103.4214,8.03,9.12,17.83,0,110.1,13.41,8.81,305.0
"2009-11-19 00:40:30",1428847,2.582,344.3,8.13,1.221,11.68,103.4214,8.03,9.23,17.7,0,110.1,13.37,8.81,306.3
"2009-11-19 00:41:00",1428848,3.51,351.8,4.953,1.27,13.5,103.4211,8.03,9.27,17.76,0,110.1,13.38,8.81,313.8
"2009-11-19 00:41:30",1428849,3.057,350.9,7.563,1.241,13.23,103.4056,7.994,9.29,17.89,0,110.1,13.37,8.77,312.9
"2009-11-19 00:42:00",1428850,1.825,353,5.895,1.192,11.77,103.3909,7.957,9.19,17.78,0,110.1,13.37,8.74,315.0
"2009-11-19 00:42:30",1428851,1.506,328.1,14.37,1.3,11.22,103.3875,7.948,9.08,17.72,0,110.1,13.37,8.73,290.1
"2009-11-19 00:43:00",1428852,0.563,321.1,3.857,0.066,9.05,103.3875,7.948,9.03,18.02,0,110.1,13.41,8.73,283.1
"2009-11-19 00:43:30",1428853,0.473,320.2,2.937,0.047,8.85,103.3875,7.948,9.01,18.32,0,110.1,13.41,8.73,282.2
"2009-11-19 00:44:00",1428854,0.429,327.3,5.073,0.068,8.82,103.3875,7.948,9.01,18.52,0,110.1,13.41,8.73,289.3
"2009-11-19 00:44:30",1428855,0.383,333,5.233,0.063,8.95,103.3875,7.948,8.99,18.64,0,110.1,13.41,8.73,295.0
"2009-11-19 00:45:00",1428856,0.577,344.8,7.463,0.095,8.94,103.387,7.947,8.99,18.56,0,110.1,13.42,8.73,306.8
"2009-11-19 00:45:30",1428857,0.788,341.1,4.182,0.065,9.12,103.3831,7.937,8.98,18.35,0,110.1,13.42,8.72,303.1
"2009-11-19 00:46:00",1428858,0.786,334.9,3.809,0.075,9.6,103.3798,7.928,8.97,18.13,0,110.1,13.42,8.71,296.9
"2009-11-19 00:46:30",1428859,0.856,332.1,1.448,0.061,10.09,103.3772,7.921,8.96,18.03,0,110.1,13.42,8.70,294.1
"2009-11-19 00:47:00",1428860,2.215,336.7,6.329,1.344,12.39,103.3678,7.898,9.09,18.07,0,110.1,13.39,8.68,298.7
"2009-11-19 00:47:30",1428861,2.87,340.2,6.448,1.297,13.26,103.368,7.898,9.16,18.08,0,110.1,13.39,8.68,302.2
"2009-11-19 00:48:00",1428862,3.231,340.9,6.803,1.345,13.63,103.3717,7.908,9.21,18.05,0,110.1,13.38,8.69,302.9
"2009-11-19 00:48:30",1428863,2.703,338.1,8.18,1.295,12.2,103.3764,7.92,9.12,17.95,0,110.1,13.38,8.70,300.1
"2009-11-19 00:49:00",1428864,1.587,341,3.32,0.08,9.28,103.3788,7.926,8.93,17.76,0,110.1,13.41,8.71,303.0
"2009-11-19 00:49:30",1428865,1.602,338.5,3.451,0.123,8.54,103.3846,7.941,8.92,17.75,0,110.1,13.41,8.72,300.5
"2009-11-19 00:50:00",1428866,1.465,341.4,5.854,0.145,8.74,103.3881,7.949,8.93,17.77,0,110,13.41,8.73,303.4
"2009-11-19 00:50:30",1428867,1.303,334.5,4.788,0.1,8.98,103.3887,7.951,8.92,17.76,0,110,13.41,8.73,296.5
"2009-11-19 00:51:00",1428868,1.457,336.8,3.254,0.163,9.38,103.3887,7.951,8.92,17.8,0,110,13.41,8.73,298.8
"2009-11-19 00:51:30",1428869,2.028,328.9,3.887,0.278,9.51,103.3887,7.951,8.9,17.98,0,110.1,13.42,8.73,290.9
"2009-11-19 00:52:00",1428870,2.384,327.4,4.775,0.711,10.21,103.3887,7.951,9.01,18.94,0,110.1,13.39,8.73,289.4
"2009-11-19 00:52:30",1428871,4.371,339.4,5.325,0.823,15.1,103.3887,7.951,9.2,19.75,0,110,13.39,8.73,301.4
"2009-11-19 00:53:00",1428872,3.811,345.3,4.714,0.786,14.93,103.3887,7.951,9.24,19.91,0,110.1,13.39,8.73,307.3
"2009-11-19 00:53:30",1428873,2.45,344.6,8.82,1.323,13.19,103.3887,7.951,9.07,19.33,0,110.1,13.39,8.73,306.6
"2009-11-19 00:54:00",1428874,0.684,335.6,3.654,0.102,8.93,103.3887,7.951,8.92,18.85,0,110.1,13.42,8.73,297.6
"2009-11-19 00:54:30",1428875,0.654,336.4,2.608,0.055,8.49,103.3887,7.951,8.92,18.59,0,110,13.42,8.73,298.4
"2009-11-19 00:55:00",1428876,0.718,336.2,3.202,0.055,8.64,103.3887,7.951,8.92,18.45,0,110,13.42,8.73,298.2
"2009-11-19 00:55:30",1428877,0.625,337.9,2.607,0.077,8.96,103.3887,7.951,8.94,18.4,0,110.1,13.42,8.73,299.9
"2009-11-19 00:56:00",1428878,0.469,335,4.529,0.066,9.39,103.3887,7.951,8.94,18.38,0,110.1,13.43,8.73,297.0
"2009-11-19 00:56:30",1428879,0.377,326.5,3.509,0.082,9.82,103.3887,7.951,8.94,18.34,0,110.1,13.43,8.73,288.5
"2009-11-19 00:57:00",1428880,0.214,334.1,5.04,0.035,10.14,103.3887,7.951,8.94,18.36,0,110.1,13.43,8.73,296.1
"2009-11-19 00:57:30",1428881,0.307,324.7,6.007,0.083,10.42,103.3887,7.951,8.93,18.36,0,110,13.44,8.73,286.7
"2009-11-19 00:58:00",1428882,0.207,316.9,6.274,0.258,10.62,103.3887,7.951,8.94,18.38,0,110.1,13.4,8.73,278.9
"2009-11-19 00:58:30",1428883,1.248,322.6,13.28,1.338,12.75,103.3887,7.951,9.1,18.58,0,110.1,13.4,8.73,284.6
"2009-11-19 00:59:00",1428884,0.18,317.5,11.75,0.041,10.85,103.3887,7.951,8.95,18.45,0,110.1,13.44,8.73,279.5
"2009-11-19 00:59:30",1428885,1.222,352,9.53,1.259,12.25,103.3887,7.951,9.09,18.62,0,110.1,13.4,8.73,314.0
"2009-11-19 01:00:00",1428886,1.434,331.4,5.77,1.156,11.51,103.3887,7.951,9.09,18.7,0,110.1,13.4,8.73,293.4
"2009-11-19 01:00:30",1428887,2.593,333.6,6.932,1.336,13.04,103.3887,7.951,9.19,18.79,0,110.1,13.4,8.73,295.6
"2009-11-19 01:01:00",1428888,1.678,328.1,5.502,0.885,9.76,103.3878,7.949,8.99,18.65,0,110,13.4,8.73,290.1
"2009-11-19 01:01:30",1428889,1.284,327.7,1.839,0.061,8.5,103.3825,7.935,8.94,18.89,0,110.1,13.44,8.71,289.7
"2009-11-19 01:02:00",1428890,1.137,332.2,3.033,0.078,8.54,103.3796,7.928,8.92,19.05,0,110,13.44,8.71,294.2
"2009-11-19 01:02:30",1428891,1.153,334.7,2.294,0.123,8.85,103.3737,7.913,8.92,19.08,0,110,13.44,8.69,296.7
"2009-11-19 01:03:00",1428892,1.398,334.8,2.426,0.069,9.13,103.3627,7.885,8.92,19.07,0,110,13.44,8.66,296.8
"2009-11-19 01:03:30",1428893,1.538,333.3,1.615,0.077,9.34,103.3585,7.874,8.93,19.18,0,110,13.44,8.65,295.3
"2009-11-19 01:04:00",1428894,2.462,338.1,6.083,1.221,11.35,103.3609,7.88,9.07,19.49,0,110,13.41,8.66,300.1
"2009-11-19 01:04:30",1428895,3.371,342.5,6.385,1.294,13.48,103.3624,7.884,9.17,19.7,0,110,13.4,8.66,304.5
"2009-11-19 01:05:00",1428896,3.523,342.6,6.477,1.27,13.05,103.3627,7.884,9.04,19.63,0,110,13.4,8.66,304.6
"2009-11-19 01:05:30",1428897,2.906,337,5.692,1.265,11.1,103.3644,7.889,9.04,19.86,0,110,13.4,8.67,299.0
"2009-11-19 01:06:00",1428898,3.108,337.1,6.879,1.346,11.83,103.3671,7.896,9.15,20.08,0,110,13.4,8.68,299.1
"2009-11-19 01:06:30",1428899,2.148,334,5.653,1.092,9.72,103.3679,7.898,8.9,19.79,0,110,13.4,8.68,296.0
"2009-11-19 01:07:00",1428900,1.579,328.3,1.51,0.085,8.57,103.37,7.903,8.9,19.53,0,110,13.43,8.68,290.3
"2009-11-19 01:07:30",1428901,1.49,326.5,2.131,0.061,8.92,103.3723,7.909,8.9,19.29,0,110,13.43,8.69,288.5
"2009-11-19 01:08:00",1428902,1.446,326.8,1.032,0.066,9.39,103.3779,7.923,8.89,19.14,0,110,13.44,8.70,288.8
"2009-11-19 01:08:30",1428903,1.501,324.3,1.871,0.089,9.91,103.3808,7.931,8.89,19.03,0,110,13.44,8.71,286.3
"2009-11-19 01:09:00",1428904,3.123,331.6,7.441,1.3,12.94,103.3814,7.932,9.11,19.23,0,110,13.4,8.71,293.6
"2009-11-19 01:09:30",1428905,3.078,334.4,7.162,1.273,12.8,103.386,7.944,8.99,19.01,0,110,13.41,8.72,296.4
"2009-11-19 01:10:00",1428906,2.881,330.4,5.802,1.378,11.36,103.3858,7.944,8.93,18.92,0,110,13.41,8.72,292.4
"2009-11-19 01:10:30",1428907,2.452,320.9,5.413,0.926,9.88,103.3861,7.944,9.04,19.25,0,110,13.41,8.72,282.9
"2009-11-19 01:11:00",1428908,3.921,324.9,6.874,1.317,11.69,103.3856,7.943,9.02,20.16,0,110,13.41,8.72,286.9
"2009-11-19 01:11:30",1428909,2.205,319,2.105,0.052,8.64,103.3842,7.939,8.92,21.19,0,110,13.44,8.72,281.0
"2009-11-19 01:12:00",1428910,2.099,323,1.582,0.057,8.77,103.3819,7.934,8.88,21.83,0,110,13.45,8.71,285.0
"2009-11-19 01:12:30",1428911,2.188,322.9,1.895,0.043,8.96,103.3797,7.928,8.88,21.86,0,110,13.45,8.71,284.9
"2009-11-19 01:13:00",1428912,2.936,321.3,5.214,1.104,10.05,103.3765,7.92,8.95,21.86,0,110,13.41,8.70,283.3
"2009-11-19 01:13:30",1428913,4.603,325.2,6.876,1.088,12.95,103.3709,7.906,9.11,22.6,0,110,13.41,8.69,287.2
"2009-11-19 01:14:00",1428914,3.623,318.8,5.975,1.237,10.61,103.3692,7.901,8.95,23.37,0,110,13.41,8.68,280.8
"2009-11-19 01:14:30",1428915,2.75,316.6,2.882,0.247,9.39,103.3729,7.911,9.02,24.72,0,110,13.42,8.69,278.6
"2009-11-19 01:15:00",1428916,4.418,329.1,5.565,1.221,12.75,103.37,7.903,9.06,25.31,0,110,13.41,8.68,291.1
"2009-11-19 01:15:30",1428917,2.716,324.1,4.664,1.211,9.74,103.374,7.913,8.92,25.28,0,110,13.41,8.69,286.1
"2009-11-19 01:16:00",1428918,1.865,325.3,1.143,0.028,8.78,103.3751,7.916,8.97,24.74,0,110,13.45,8.70,287.3
"2009-11-19 01:16:30",1428919,1.813,328.2,0.569,0.032,8.93,103.3757,7.918,8.9,23.58,0,110,13.45,8.70,290.2
"2009-11-19 01:17:00",1428920,1.786,329.7,0.473,0.037,9.27,103.3737,7.913,8.89,22.83,0,110,13.45,8.69,291.7
"2009-11-19 01:17:30",1428921,3.32,337.8,7.288,1.307,12.36,103.3723,7.909,9.06,22.67,0,110,13.42,8.69,299.8
"2009-11-19 01:18:00",1428922,3.22,338,6.559,1.277,12.33,103.3717,7.908,9.1,22.54,0,110,13.42,8.69,300.0
"2009-11-19 01:18:30",1428923,1.823,332.8,0.632,0.023,9.57,103.3709,7.906,8.9,22.27,0,110,13.45,8.69,294.8
"2009-11-19 01:19:00",1428924,2.981,339.1,6.916,1.282,11.45,103.3698,7.903,9.07,22.44,0,110,13.42,8.68,301.1
"2009-11-19 01:19:30",1428925,1.83,329.8,1.755,0.017,9.47,103.3638,7.887,9.01,22.52,0,110,13.45,8.67,291.8
"2009-11-19 01:20:00",1428926,1.9,330.9,4.183,0.476,9.64,103.3621,7.883,9.04,22.83,0,110,13.45,8.66,292.9
"2009-11-19 01:20:30",1428927,2.901,336,6.277,1.261,10.61,103.3613,7.881,8.94,22.96,0,110,13.42,8.66,298.0
"2009-11-19 01:21:00",1428928,1.888,333.5,0.654,0.02,9.15,103.361,7.88,8.9,23.01,0,110,13.45,8.66,295.5
"2009-11-19 01:21:30",1428929,2.426,336.9,4.801,1.005,10.05,103.359,7.875,8.91,22.88,0,110,13.42,8.65,298.9
"2009-11-19 01:22:00",1428930,3.591,338.3,6.768,1.241,11.63,103.359,7.875,9.05,22.87,0,110,13.42,8.65,300.3
"2009-11-19 01:22:30",1428931,3.857,335.4,6.9,1.25,12.83,103.3559,7.867,9.14,22.94,0,110,13.41,8.65,297.4
"2009-11-19 01:23:00",1428932,3.043,324.3,6.264,1.119,10.23,103.3562,7.868,8.94,22.97,0,110,13.41,8.65,286.3
"2009-11-19 01:23:30",1428933,3.242,320.1,6.184,1.17,9.75,103.3559,7.867,8.91,23.53,0,110,13.41,8.65,282.1
"2009-11-19 01:24:00",1428934,3.657,324.6,6.845,1.328,11.14,103.3559,7.867,9.05,25.06,0,110,13.42,8.65,286.6
"2009-11-19 01:24:30",1428935,3.212,325.1,5.576,1.253,10.45,103.3562,7.868,8.89,24.68,0,110,13.41,8.65,287.1
"2009-11-19 01:25:00",1428936,2.987,331.9,8.1,1.123,11.7,103.3559,7.867,9.09,23.91,0,110,13.42,8.65,293.9
"2009-11-19 01:25:30",1428937,1.714,331.9,3.847,0.748,9.46,103.3582,7.873,8.89,22.65,0,110,13.42,8.65,293.9
"2009-11-19 01:26:00",1428938,1.591,339.3,5.855,1.014,11.07,103.3613,7.881,9.07,21.75,0,110,13.42,8.66,301.3
"2009-11-19 01:26:30",1428939,2.777,348.2,6.15,1.164,13.36,103.3653,7.891,9.11,20.87,0,110,13.42,8.67,310.2
"2009-11-19 01:27:00",1428940,1.941,341.8,8,1.283,11.42,103.3698,7.903,9.02,20.5,0,110,13.42,8.68,303.8
"2009-11-19 01:27:30",1428941,1.143,329.2,2.628,0.107,8.77,103.3687,7.9,8.91,20.14,0,110,13.46,8.68,291.2
"2009-11-19 01:28:00",1428942,1.426,322.6,2.777,0.064,8.79,103.3656,7.892,8.91,20.19,0,110,13.46,8.67,284.6
"2009-11-19 01:28:30",1428943,2.454,322.2,6.702,1.231,10.76,103.3585,7.874,9.09,21.35,0,110,13.43,8.65,284.2
"2009-11-19 01:29:00",1428944,1.862,322.3,2.871,0.849,9.83,103.3608,7.88,9,21.41,0,110,13.43,8.66,284.3
"2009-11-19 01:29:30",1428945,1.439,322.7,3.619,0.524,9.94,103.3591,7.875,8.94,21.35,0,110,13.46,8.65,284.7
"2009-11-19 01:30:00",1428946,1.565,325.5,5.695,1.025,10.61,103.3606,7.879,9.08,20.97,0,110,13.43,8.66,287.5
"2009-11-19 01:30:30",1428947,1.756,327.4,6.032,1.195,10.48,103.3603,7.878,8.94,20.37,0,110,13.43,8.66,289.4
"2009-11-19 01:31:00",1428948,1.758,325.4,6.106,1.154,10.9,103.3612,7.881,8.97,20.4,0,110,13.43,8.66,287.4
"2009-11-19 01:31:30",1428949,2.116,329.4,7.893,1.286,11.87,103.3615,7.881,9.13,20.47,0,110,13.43,8.66,291.4
"2009-11-19 01:32:00",1428950,2.527,328.6,7.001,1.318,11.17,103.3629,7.885,9.04,20.26,0,110,13.43,8.66,290.6
"2009-11-19 01:32:30",1428951,1.543,321.6,0.489,0.019,8.57,103.3626,7.884,8.92,20.83,0,110,13.47,8.66,283.6
"2009-11-19 01:33:00",1428952,1.573,319.9,1.014,0.036,8.56,103.3638,7.887,8.9,21.8,0,110,13.47,8.67,281.9
"2009-11-19 01:33:30",1428953,1.523,318.1,0.02,0.036,8.89,103.3644,7.889,8.89,22.31,0,110,13.47,8.67,280.1
"2009-11-19 01:34:00",1428954,2.704,322.7,6.957,1.328,11.19,103.3644,7.889,9.06,22.88,0,110,13.43,8.67,284.7
"2009-11-19 01:34:30",1428955,1.716,312.7,1.501,0.06,8.87,103.3644,7.889,8.88,23.11,0,110,13.47,8.67,274.7
"2009-11-19 01:35:00",1428956,1.889,311.3,0.489,0.04,9.09,103.3659,7.893,8.89,23.02,0,110,13.43,8.67,273.3
"2009-11-19 01:35:30",1428957,3.104,318,6.772,1.301,10.76,103.3659,7.893,9,22.81,0,110,13.43,8.67,280.0
"2009-11-19 01:36:00",1428958,3.839,323.9,6.087,1.184,12.35,103.3653,7.891,9.11,23.37,0,110,13.43,8.67,285.9
"2009-11-19 01:36:30",1428959,3.66,322,6.557,1.302,11.42,103.3662,7.894,9.01,24.32,0,110,13.43,8.67,284.0
"2009-11-19 01:37:00",1428960,2.6,313.9,5.211,0.991,8.98,103.3672,7.896,8.93,26.08,0,110,13.43,8.68,275.9
"2009-11-19 01:37:30",1428961,2.127,313.4,1.686,0.04,8.76,103.365,7.89,8.87,25.04,0,110,13.46,8.67,275.4
"2009-11-19 01:38:00",1428962,2.102,319.2,1.248,0.079,9.09,103.3611,7.88,8.94,23.72,0,110,13.43,8.66,281.2
"2009-11-19 01:38:30",1428963,3.275,325.5,6.515,1.265,11.55,103.3577,7.872,8.95,23.45,0,110,13.43,8.65,287.5
"2009-11-19 01:39:00",1428964,2.238,320.8,0.678,0.035,9.13,103.3502,7.853,8.85,23.21,0,110,13.46,8.63,282.8
"2009-11-19 01:39:30",1428965,2.29,317.8,2.147,0.035,9.07,103.3448,7.839,8.88,23.22,0,110,13.46,8.62,279.8
"2009-11-19 01:40:00",1428966,4.289,324,6.018,1.168,12.72,103.3466,7.843,9.09,22.96,0,110,13.43,8.62,286.0
"2009-11-19 01:40:30",1428967,4.112,323.3,6.38,1.163,12.42,103.3468,7.844,9.11,23,0,110,13.43,8.62,285.3
"2009-11-19 01:41:00",1428968,3.493,319.1,6.203,1.278,10.14,103.3486,7.849,8.89,23.54,0,110,13.43,8.63,281.1
"2009-11-19 01:41:30",1428969,3.593,321.4,6.706,1.254,10.26,103.3486,7.849,8.97,25.62,0,110,13.43,8.63,283.4
"2009-11-19 01:42:00",1428970,3.467,322.2,6.705,1.294,10.45,103.3506,7.854,9,27.74,0,110,13.43,8.63,284.2
"2009-11-19 01:42:30",1428971,2.731,316.6,2.702,0.688,8.8,103.3489,7.849,8.92,29.1,0,110,13.43,8.63,278.6
"2009-11-19 01:43:00",1428972,3.089,318.6,6.026,1.072,10.12,103.3483,7.848,8.91,29.76,0,110,13.43,8.63,280.6
"2009-11-19 01:43:30",1428973,2.897,315.1,4.382,1.022,9.7,103.3489,7.849,8.84,29.61,0,110,13.44,8.63,277.1
"2009-11-19 01:44:00",1428974,3.731,320.8,6.821,1.296,12.05,103.3515,7.856,9.08,26.88,0,110,13.44,8.64,282.8
"2009-11-19 01:44:30",1428975,3.807,323.1,6.454,1.328,12.03,103.3512,7.855,9.04,25.22,0,110,13.44,8.63,285.1
"2009-11-19 01:45:00",1428976,2.776,321.1,5.879,1.008,10.08,103.3509,7.854,8.96,25.12,0,110,13.44,8.63,283.1
"2009-11-19 01:45:30",1428977,3.06,323.7,4.92,1.088,9.98,103.3518,7.857,8.83,24.95,0,110,13.43,8.64,285.7
"2009-11-19 01:46:00",1428978,3.3,326.4,5.88,1.196,10.13,103.353,7.86,8.83,24.84,0,110,13.44,8.64,288.4
"2009-11-19 01:46:30",1428979,2.692,325.7,4.561,0.74,10.15,103.3533,7.86,8.99,24.86,0,110,13.44,8.64,287.7
"2009-11-19 01:47:00",1428980,3.037,323.3,7.664,1.323,10.58,103.3518,7.857,8.83,24.64,0,110,13.44,8.64,285.3
"2009-11-19 01:47:30",1428981,1.921,320.1,2.103,0.089,9.43,103.3521,7.858,8.81,24.7,0,110,13.47,8.64,282.1
"2009-11-19 01:48:00",1428982,1.695,324.3,3.657,0.453,10.33,103.3531,7.86,8.92,24.38,0,110,13.44,8.64,286.3
"2009-11-19 01:48:30",1428983,3.03,336,7.334,1.277,13.11,103.3528,7.859,9.04,23.14,0,110,13.44,8.64,298.0
"2009-11-19 01:49:00",1428984,1.965,333.6,5.386,1.196,11.39,103.3514,7.856,9,22.4,0,110,13.44,8.64,295.6
"2009-11-19 01:49:30",1428985,2.54,333,6.82,1.316,11.35,103.3506,7.854,8.93,21.9,0,110,13.44,8.63,295.0
"2009-11-19 01:50:00",1428986,1.905,327.8,5.883,0.993,10.3,103.3477,7.846,8.93,21.75,0,110,13.44,8.63,289.8
"2009-11-19 01:50:30",1428987,1.541,321.5,0.608,0.023,8.71,103.3475,7.846,8.8,22,0,110,13.48,8.63,283.5